This is the latest recevied weather packets stored in our database for station/object EA1AHA-13. If no packets are shown the sender has not sent any weather packets the latest 10 day(s).
| Time | Temp. | Humidity | Pressure | Rain* | Wind** | Luminosity | Snow |
|---|---|---|---|---|---|---|---|
| 1778068877 | 15.56° C | 71% | 1013.2 hPa | 0 mm | - | - | - |
| 1778068301 | 16.11° C | 67% | 1013.6 hPa | 0 mm | - | - | - |
| 1778067677 | 15.56° C | 68% | 1013.6 hPa | 0 mm | - | - | - |
| 1778067100 | 15.56° C | 70% | 1013.7 hPa | 0 mm | - | - | - |
| 1778066477 | 15.56° C | 72% | 1013.3 hPa | 0 mm | - | - | - |
| 1778065900 | 15.56° C | 73% | 1013.7 hPa | 0 mm | - | - | - |
| 1778065276 | 15.56° C | 68% | 1013.6 hPa | 0 mm | - | - | - |
| 1778064492 | 14.44° C | 75% | 1013.5 hPa | 0 mm | - | - | - |
| 1778063789 | 15° C | 73% | 1013.6 hPa | 0 mm | - | - | - |
| 1778063165 | 15° C | 70% | 1013.8 hPa | 0 mm | - | - | - |
| 1778062589 | 15° C | 72% | 1013.7 hPa | 0 mm | - | - | - |
| 1778061966 | 15.56° C | 71% | 1013.4 hPa | 0 mm | - | - | - |
| 1778061389 | 14.44° C | 71% | 1013.6 hPa | 0 mm | - | - | - |
| 1778060765 | 15° C | 71% | 1013.8 hPa | 0 mm | - | - | - |
| 1778060188 | 14.44° C | 73% | 1013.7 hPa | 0 mm | - | - | - |
| 1778059565 | 14.44° C | 74% | 1013.6 hPa | 0 mm | - | - | - |
| 1778058990 | 13.89° C | 75% | 1013.6 hPa | 0 mm | - | - | - |
| 1778058365 | 13.89° C | 76% | 1013.3 hPa | 0 mm | - | - | - |
| 1778057789 | 13.89° C | 77% | 1013.3 hPa | 0 mm | - | - | - |
| 1778057165 | 13.33° C | 76% | 1013.6 hPa | 0 mm | - | - | - |
| 1778056588 | 13.33° C | 79% | 1013.5 hPa | 0 mm | - | - | - |
| 1778055965 | 12.78° C | 79% | 1013.8 hPa | 0 mm | - | - | - |
| 1778055390 | 12.78° C | 80% | 1013.6 hPa | 0 mm | - | - | - |
| 1778054765 | 12.78° C | 79% | 1013.5 hPa | 0 mm | - | - | - |
| 1778054189 | 12.78° C | 79% | 1013.6 hPa | 0 mm | - | - | - |
* Rain latest hour (hover to see other rain measurements)
** Current wind speed in m/s (hover to see current wind gust speed)